Дьябло

США     37°52′40″N   121°56′02″W
темп.,
°C
ветер,
м/с
пор.,
м/с
влажн.,
%
обл.,
%
осадки,
мм/ч
давл.,
гПа
погр.,
м
16 октября, сб
сб1623:00+19ю00255 0.0 101811
02:00+18вюв11285 0.0 101811
05:00+16св11335 0.0 101812
08:00+15всв11375 0.0 101739
11:00+21св23235 0.0 1017377
14:00+26св22160 0.0 1014656
17:00+26з23150 0.0 1012670
20:00+21юз2320100 0.0 101385
17 октября, вс
вс1723:00+19юз222374 0.0 101345
02:00+17ююз22295 0.0 101227
05:00+15юз2233100 0.0 101135
08:00+15юз1242100 0.0 1012112
11:00+21юз3723100 0.0 1011936
14:00+21юз7103394 0.0 10091450
17:00+17юз7115630 0.0 10101151
20:00+13зюз4974100 2.8 1012831
18 октября, пн
пн1823:00+12юз510724 3.2 1013750
02:00+11юз49763 0.0 1014729
05:00+10юз49810 0.0 1015536
08:00+10юз25825 0.0 1017446
11:00+14з23559 0.0 10181183
14:00+16зсз22415 0.0 10161298
17:00+17зсз12360 0.0 10151541
20:00+15зюз12445 0.0 1016150
19 октября, вт
вт1923:00+13юз236139 0.0 1017227
02:00+11ююз11664 0.0 101685
05:00+11в11671 0.0 101658
08:00+11всв126372 0.0 1016138
11:00+15всв22410 0.0 1016659
14:00+20з14266 0.0 10141332
17:00+18зюз453975 0.0 1015662
20:00+15юз2440100 0.0 1015335
20 октября, ср
ср2023:00+14ююз2339100 0.0 1015119
02:00+14ююз1339100 0.0 1017183
05:00+14ююв1338100 0.0 1017218
08:00+13св2249100 0.3 1018254
11:00+14св1150100 0.3 1019295
14:00+15св2250100 0.0 1019376
17:00+15св2353100 0.0 1018373
20:00+14ссв2262100 0.0 1020301